Vorticity
12 23 5 9 5 20 15 16 7 9 12 17 13 16 9 13 11 16 -6 8 7 5 6 7 7 9 11 4 2 1 5 -0 -1 6 9 9 14 5 13 8 12 6 5 8
-21 -11 26 6 12 11 19 25 7 -1 -1 3 8 -2 4 3 -5 4 6 8 12 7 6 6 8 8 10 5 1 1 2 1 2 1 -1 6 13 9 9 14 4 5 7 12
-4 -7 6 -2 16 21 8 8 11 10 10 22 4 9 12 11 4 6 6 11 6 4 4 5 7 9 4 -0 1 2 2 1 2 2 6 9 12 23 17 2 6 8 10 11
57 24 -8 10 -9 -4 18 28 13 8 9 22 27 32 17 5 7 7 7 5 6 6 12 13 6 2 1 3 2 2 2 3 4 6 9 17 21 13 6 5 7 8 11 8
7 -21 56 71 14 9 21 3 20 9 7 3 3 22 14 19 10 -0 -4 -1 -1 4 7 -1 2 3 3 2 3 4 4 4 5 16 11 22 11 14 1 8 8 11 8 7
19 28 7 9 16 18 7 22 -7 2 11 45 2 9 10 -8 12 6 1 -1 6 5 -2 -2 -0 -0 1 2 4 8 3 2 23 9 21 15 17 -6 8 6 10 10 7 7
6 -10 -2 3 32 47 64 26 47 3 4 0 38 28 25 36 31 34 29 24 36 -3 -6 -1 2 5 8 4 0 9 29 29 30 17 25 9 -7 6 2 10 11 8 9 9
26 -10 -8 4 26 -35 6 13 -20 20 16 -5 5 18 17 10 10 15 20 22 23 29 25 22 17 11 16 25 28 19 3 16 20 21 6 -10 6 5 11 12 9 10 11 6
8 7 12 -1 7 17 0 -0 38 4 11 7 0 -15 -3 24 23 20 14 9 7 14 18 19 16 13 17 14 16 24 31 34 10 -5 2 -8 9 13 15 12 10 11 7 6
20 9 10 23 26 21 9 10 0 30 -10 -1 6 -2 -2 -5 -11 -20 2 8 7 10 6 8 8 15 15 19 28 27 13 3 -3 -1 5 11 21 15 14 13 12 10 5 7
11 10 21 21 18 7 1 15 -20 -16 13 20 22 5 3 1 -18 -12 4 0 9 7 10 9 11 13 14 17 12 2 4 7 10 7 15 9 -1 -3 4 12 15 9 6 8
-11 -6 4 -5 -17 11 30 21 3 -8 29 4 -3 6 24 27 13 20 15 9 9 11 14 14 15 17 15 17 -5 6 3 12 4 10 17 1 -0 -0 10 13 12 8 8 11
8 7 3 -2 -6 6 15 27 -14 42 -5 12 20 26 -18 5 1 10 7 10 7 4 2 11 15 12 1 7 8 16 11 4 6 9 5 2 7 7 12 18 13 9 10 9
-2 13 5 24 12 12 6 -0 51 5 10 38 2 1 19 -6 -7 -8 17 17 14 5 14 12 16 8 -8 16 12 6 -11 0 8 8 5 8 7 11 16 17 7 4 8 8
28 9 2 10 12 22 9 -25 -3 37 -5 3 -4 -7 -14 0 10 19 11 20 20 10 18 12 -3 2 11 12 18 3 2 3 13 4 13 13 14 16 15 11 9 11 10 8
14 26 9 -12 6 9 20 23 9 14 33 -6 9 8 7 26 26 13 30 11 8 14 -2 6 19 13 13 21 2 1 1 12 3 5 -1 16 17 13 10 9 9 8 6 5
11 15 28 20 12 7 25 29 13 -7 -0 7 20 13 12 16 -13 8 26 -13 5 14 24 15 13 5 5 6 6 3 14 8 8 3 8 16 14 9 8 8 8 5 7 6
35 39 17 17 24 18 7 33 37 20 -22 15 26 11 11 -3 1 5 -0 15 15 13 7 6 17 13 12 10 6 11 13 1 4 10 13 13 10 8 8 9 5 5 7 7
40 29 41 25 18 33 24 24 29 47 -29 11 12 17 31 6 19 17 28 7 17 14 11 11 11 9 8 2 5 10 8 9 15 13 13 10 8 9 8 5 6 8 7 7
17 28 39 35 25 -0 18 10 16 23 40 40 -6 -15 16 30 9 2 1 8 16 -1 11 9 5 8 6 7 9 13 13 13 13 11 9 7 9 8 5 6 7 7 8 8
10 16 22 32 30 27 32 30 25 10 18 24 28 0 -25 15 29 5 26 7 11 17 16 17 7 6 10 12 13 16 12 11 7 8 7 7 8 5 5 7 8 8 10 9
7 5 6 14 24 30 35 34 33 44 33 6 21 40 8 14 19 15 6 12 5 21 20 19 21 19 14 12 10 8 6 7 7 5 6 8 6 6 7 10 9 11 9 8
7 11 12 10 7 9 11 22 24 21 28 33 37 26 18 11 11 18 20 16 23 23 19 16 10 8 8 7 5 6 4 3 5 11 9 5 8 10 10 10 11 9 9 8
5 4 6 7 10 10 13 9 5 8 10 12 13 16 18 20 22 18 20 16 18 15 9 7 5 4 4 4 3 4 9 15 10 7 8 11 11 10 11 10 9 7 7 7
4 6 8 8 6 5 6 7 8 12 13 9 6 4 4 5 5 6 7 6 4 2 2 2 4 6 9 13 17 14 10 8 7 11 11 10 11 9 9 7 6 7 8 12
7 7 9 12 12 10 9 9 9 8 6 6 7 9 10 11 11 10 10 10 11 13 14 15 15 13 9 9 9 8 8 9 10 11 11 9 8 7 7 7 8 13 21 19
14 12 13 11 7 8 9 9 9 8 8 8 8 7 7 6 6 6 7 8 8 7 7 8 5 5 8 9 10 10 9 10 9 8 8 8 8 7 9 16 23 19 16 19
Height
5473 5482 5492 5501 5508 5514 5516 5531 5530 5546 5543 5556 5562 5566 5568 5572 5578 5584 5589 5592 5595 5598 5601 5604 5606 5608 5609 5609 5610 5610 5609 5608 5607 5605 5602 5598 5594 5591 5587 5583 5579 5574 5570 5565
5467 5472 5480 5489 5498 5504 5511 5521 5517 5530 5533 5544 5550 5554 5558 5562 5567 5572 5576 5580 5584 5586 5588 5591 5592 5595 5596 5597 5596 5597 5596 5595 5593 5591 5588 5584 5581 5578 5575 5571 5567 5563 5559 5553
5460 5468 5475 5479 5489 5497 5504 5510 5515 5517 5533 5534 5538 5544 5548 5552 5556 5560 5563 5567 5571 5573 5577 5579 5580 5581 5583 5584 5584 5584 5583 5582 5580 5577 5574 5571 5568 5565 5562 5558 5555 5552 5547 5541
5445 5460 5465 5474 5483 5488 5493 5501 5504 5509 5516 5522 5524 5525 5527 5537 5543 5547 5551 5556 5559 5562 5565 5566 5568 5570 5572 5572 5571 5571 5570 5569 5567 5565 5561 5559 5556 5552 5549 5547 5544 5540 5535 5530
5443 5449 5453 5463 5467 5472 5479 5486 5486 5491 5495 5501 5504 5512 5521 5528 5532 5537 5541 5545 5547 5549 5551 5554 5556 5558 5559 5559 5559 5558 5557 5556 5554 5552 5549 5547 5544 5541 5538 5536 5532 5528 5523 5518
5440 5447 5449 5450 5454 5460 5469 5475 5476 5480 5484 5490 5493 5505 5515 5512 5516 5522 5529 5533 5536 5538 5539 5540 5541 5543 5545 5545 5545 5545 5544 5542 5541 5539 5537 5535 5533 5530 5527 5524 5520 5516 5512 5507
5435 5438 5439 5442 5446 5455 5460 5467 5465 5469 5476 5484 5490 5494 5495 5501 5506 5509 5512 5516 5520 5523 5524 5525 5528 5530 5531 5531 5532 5531 5530 5529 5528 5527 5526 5524 5522 5519 5516 5513 5509 5504 5501 5497
5428 5430 5432 5433 5439 5445 5444 5449 5454 5458 5467 5476 5480 5483 5486 5490 5494 5497 5499 5501 5505 5508 5511 5512 5514 5517 5518 5518 5518 5517 5517 5517 5516 5516 5514 5513 5511 5508 5505 5501 5498 5493 5489 5485
5418 5418 5420 5427 5431 5430 5432 5438 5443 5449 5455 5464 5470 5474 5479 5482 5485 5489 5491 5493 5495 5498 5499 5501 5503 5504 5506 5506 5506 5507 5506 5505 5505 5505 5504 5503 5501 5498 5495 5490 5487 5482 5478 5473
5411 5414 5417 5419 5421 5424 5424 5431 5436 5442 5448 5454 5460 5465 5471 5475 5477 5480 5483 5485 5486 5487 5489 5490 5491 5493 5493 5494 5494 5495 5496 5497 5497 5496 5494 5492 5490 5487 5483 5480 5476 5472 5467 5462
5407 5409 5412 5412 5413 5415 5418 5423 5427 5432 5438 5443 5449 5455 5459 5465 5468 5470 5474 5475 5476 5477 5478 5479 5481 5482 5483 5484 5486 5487 5488 5488 5486 5485 5484 5482 5479 5476 5473 5469 5465 5462 5457 5452
5400 5402 5405 5405 5407 5408 5410 5414 5419 5423 5429 5434 5436 5441 5446 5449 5455 5459 5461 5464 5465 5466 5468 5470 5471 5472 5473 5475 5476 5476 5476 5476 5475 5474 5473 5471 5468 5466 5462 5458 5454 5451 5447 5442
5392 5394 5395 5395 5397 5399 5403 5406 5409 5415 5419 5424 5427 5430 5434 5438 5442 5446 5448 5451 5453 5454 5457 5458 5460 5462 5464 5465 5466 5465 5464 5464 5464 5463 5461 5459 5457 5455 5451 5448 5444 5440 5436 5431
5377 5383 5384 5384 5387 5389 5394 5398 5400 5405 5407 5411 5416 5418 5422 5427 5431 5434 5436 5438 5440 5443 5444 5447 5450 5451 5453 5454 5455 5454 5454 5453 5452 5451 5449 5448 5446 5444 5441 5438 5434 5430 5425 5420
5368 5367 5371 5374 5376 5377 5382 5386 5390 5393 5398 5400 5405 5407 5411 5416 5419 5422 5425 5427 5429 5432 5432 5435 5437 5440 5442 5443 5444 5444 5443 5442 5442 5440 5439 5436 5433 5430 5428 5424 5421 5417 5413 5408
5363 5360 5357 5359 5364 5367 5371 5378 5382 5386 5389 5390 5394 5398 5402 5406 5410 5413 5415 5417 5420 5420 5422 5424 5426 5429 5430 5431 5432 5432 5432 5432 5431 5430 5427 5424 5421 5419 5416 5413 5409 5405 5400 5396
5352 5350 5350 5353 5356 5359 5361 5365 5374 5378 5380 5384 5388 5391 5394 5399 5401 5403 5405 5407 5409 5410 5411 5412 5413 5415 5417 5419 5421 5420 5421 5421 5420 5418 5416 5412 5410 5408 5406 5403 5399 5395 5391 5385
5338 5338 5338 5339 5341 5345 5349 5351 5358 5366 5372 5376 5378 5380 5384 5387 5390 5393 5395 5396 5398 5399 5400 5401 5403 5404 5406 5408 5409 5410 5409 5409 5408 5407 5404 5402 5400 5398 5395 5392 5388 5384 5379 5374
5330 5329 5328 5330 5331 5333 5336 5341 5344 5351 5358 5365 5366 5368 5373 5376 5380 5382 5382 5384 5387 5389 5390 5391 5393 5394 5396 5397 5397 5397 5397 5397 5396 5395 5393 5392 5390 5388 5384 5381 5377 5372 5366 5361
5328 5325 5324 5324 5325 5327 5328 5330 5334 5337 5342 5350 5354 5363 5363 5366 5366 5370 5374 5375 5376 5379 5380 5382 5382 5383 5384 5384 5385 5386 5385 5385 5384 5383 5382 5381 5379 5376 5373 5369 5365 5360 5355 5350
5332 5328 5324 5321 5321 5322 5323 5325 5326 5328 5332 5337 5344 5349 5354 5354 5356 5362 5364 5365 5365 5368 5369 5370 5372 5373 5373 5373 5373 5373 5373 5374 5373 5372 5371 5370 5368 5365 5362 5357 5353 5348 5343 5337
5335 5332 5329 5326 5322 5321 5320 5320 5320 5321 5323 5325 5331 5337 5344 5344 5348 5350 5351 5351 5355 5358 5359 5359 5361 5363 5363 5363 5361 5362 5364 5363 5362 5361 5360 5358 5356 5353 5349 5345 5341 5335 5330 5325
5335 5332 5330 5328 5326 5324 5323 5321 5320 5319 5318 5320 5324 5327 5331 5335 5336 5338 5341 5343 5346 5349 5349 5351 5352 5353 5353 5353 5353 5353 5353 5351 5350 5349 5348 5346 5342 5340 5336 5332 5327 5322 5318 5313
5331 5330 5328 5327 5325 5324 5323 5321 5320 5320 5320 5320 5319 5321 5322 5326 5329 5330 5333 5337 5339 5341 5340 5342 5343 5343 5344 5345 5345 5345 5342 5338 5337 5337 5336 5333 5329 5326 5323 5318 5314 5309 5305 5301
5326 5324 5323 5322 5321 5320 5319 5318 5318 5318 5317 5317 5318 5318 5318 5320 5322 5323 5327 5333 5333 5332 5333 5333 5335 5336 5334 5333 5333 5332 5329 5327 5326 5325 5322 5319 5317 5313 5310 5305 5300 5296 5292 5287
5317 5316 5315 5315 5315 5314 5313 5313 5312 5312 5312 5312 5312 5312 5313 5315 5317 5319 5321 5322 5324 5325 5325 5325 5324 5320 5319 5321 5321 5318 5316 5315 5315 5313 5310 5307 5303 5300 5296 5292 5288 5284 5280 5275
5305 5304 5304 5304 5304 5304 5304 5303 5303 5302 5302 5303 5304 5305 5307 5307 5309 5310 5311 5311 5311 5311 5310 5309 5310 5311 5311 5309 5307 5307 5306 5305 5303 5300 5297 5294 5290 5287 5282 5279 5276 5272 5268 5264